Weather History for Paducah, KY

Change the Weather History Date:

Saturday, January 19, 2013

  Actual Average Record
Temperature  
Mean Temperature 47 °F 34 °F  
Max Temperature 57 °F 43 °F 69 °F (1952)
Min Temperature 37 °F 26 °F -13 °F (1994)
Degree Days  
Heating Degree Days 18 31  
Month to date heating degree days 521 586  
Since 1 July heating degree days 2048 2217  
Cooling Degree Days 0 0  
Month to date cooling degree days 0 0  
Year to date cooling degree days 0 0  
Moisture  
Dew Point 31 °F    
Average Humidity 55    
Maximum Humidity 70    
Minimum Humidity 40    
Precipitation  
Precipitation 0.00 in 0.12 in 2.09 in (1990)
Month to date precipitation 6.44 2.24  
Year to date precipitation 6.44 2.24  
Snow  
Snow 0.00 in 0.10 in 3.40 in (1985)
Month to date snowfall 0.3 1.7  
Since 1 July snowfall 6.0 4.0  
Snow Depth 0.00 in    
Sea Level Pressure  
Sea Level Pressure 30.18 in    
Wind  
Wind Speed 13 mph (SW)    
Max Wind Speed 25 mph    
Max Gust Speed 33 mph    
Visibility 10 miles    
Events      
T = Trace of Precipitation, MM = Missing Value Source: NWS Daily Summary

Daily Weather History Graph

Daily Weather History Graph

Search for Another Location

Airport:

Trip Planner

Search our weather history database for the weather conditions in past years. The results will help you decide how hot, cold, wet, or windy it might be!

Date:

Astronomy

Jan. 19, 2013 Rise Set
Actual Time 7:05 AM CST 5:06 PM CST
Civil Twilight 6:37 AM CST 5:34 PM CST
Nautical Twilight 6:06 AM CST 6:06 PM CST
Astronomical Twilight 5:35 AM CST 6:37 PM CST
Moon 11:30 AM CST 12:42 AM CST
Length of Visible Light 10h 56m
Length of Day
10h 00m
First Quarter, 57% of the Moon is Illuminated
Jan 19
First Quarter
Jan 26
Full
Feb 3
Last Quarter
Feb 10
New
Feb 17
First Quarter

Hourly Weather History & Observations

Time (CST) Temp. Windchill Dew Point Humidity Pressure Visibility Wind Dir Wind Speed Gust Speed Precip Events Conditions
12:53 AM 39.9 °F 34.5 °F 25.0 °F 55% 30.29 in 10.0 mi SSW 8.1 mph - N/A   Clear
1:53 AM 39.9 °F 33.9 °F 26.1 °F 58% 30.29 in 10.0 mi SSW 9.2 mph 18.4 mph N/A   Clear
2:53 AM 39.0 °F 32.8 °F 26.1 °F 60% 30.28 in 10.0 mi SSW 9.2 mph - N/A   Clear
3:53 AM 37.9 °F 31.5 °F 27.0 °F 65% 30.26 in 10.0 mi SW 9.2 mph - N/A   Clear
4:53 AM 37.9 °F 30.9 °F 28.0 °F 68% 30.26 in 10.0 mi SSW 10.4 mph 19.6 mph N/A   Clear
5:53 AM 37.0 °F 28.9 °F 28.0 °F 70% 30.27 in 10.0 mi SW 12.7 mph - N/A   Clear
6:53 AM 37.0 °F 29.3 °F 28.0 °F 70% 30.26 in 10.0 mi SSW 11.5 mph - N/A   Clear
7:53 AM 37.9 °F 31.5 °F 28.0 °F 68% 30.25 in 10.0 mi SSW 9.2 mph 17.3 mph N/A   Clear
8:53 AM 42.1 °F 34.9 °F 28.9 °F 60% 30.25 in 10.0 mi SW 13.8 mph 24.2 mph N/A   Clear
9:53 AM 46.0 °F 40.6 °F 28.9 °F 51% 30.25 in 10.0 mi SSW 11.5 mph 23.0 mph N/A   Clear
10:53 AM 48.9 °F - 30.9 °F 50% 30.22 in 10.0 mi SW 15.0 mph 25.3 mph N/A   Clear
11:53 AM 52.0 °F - 32.0 °F 47% 30.17 in 10.0 mi SSW 15.0 mph 20.7 mph N/A   Clear
12:53 PM 54.0 °F - 32.0 °F 43% 30.14 in 10.0 mi SSW 21.9 mph 31.1 mph N/A   Clear
1:53 PM 55.9 °F - 33.1 °F 42% 30.10 in 10.0 mi SSW 20.7 mph 29.9 mph N/A   Clear
2:53 PM 57.0 °F - 34.0 °F 42% 30.08 in 10.0 mi SW 18.4 mph 28.8 mph N/A   Clear
3:53 PM 55.9 °F - 34.0 °F 44% 30.07 in 10.0 mi SW 13.8 mph 24.2 mph N/A   Clear
4:53 PM 54.0 °F - 34.0 °F 47% 30.06 in 10.0 mi SW 13.8 mph 20.7 mph N/A   Clear
5:53 PM 51.1 °F - 34.0 °F 52% 30.08 in 10.0 mi SW 12.7 mph - N/A   Clear
6:53 PM 48.9 °F - 34.0 °F 56% 30.10 in 10.0 mi SSW 5.8 mph - N/A   Clear
7:53 PM 46.9 °F - 34.0 °F 61% 30.12 in 10.0 mi SW 9.2 mph - N/A   Clear
8:53 PM 48.0 °F - 34.0 °F 58% 30.12 in 10.0 mi SW 11.5 mph 19.6 mph N/A   Clear
9:53 PM 46.9 °F - 34.0 °F 61% 30.12 in 10.0 mi SW 15.0 mph - N/A   Clear
10:53 PM 46.4 °F 41.1 °F 35.6 °F 66% 30.12 in 10.0 mi SW 11.5 mph - N/A   Clear
11:53 PM 44.1 °F 38.1 °F 35.1 °F 71% 30.13 in 10.0 mi WSW 11.5 mph - N/A   Clear